This is the latest recevied weather packets stored in our database for station/object KF5WOE-13. If no packets are shown the sender has not sent any weather packets the latest 1 day(s).
| Time | Temp. | Humidity | Pressure | Rain* | Wind** | Luminosity | Snow |
|---|---|---|---|---|---|---|---|
| 1778024079 | 60° C | - | - | 0 mm | 3.58 m/s, 353° | - | - |
| 1778023776 | 60° C | - | - | 0 mm | 4.47 m/s, 315° | - | - |
| 1778023474 | 60° C | - | - | 0 mm | 7.6 m/s, 359° | - | - |
| 1778023171 | 60° C | - | - | 0 mm | 6.71 m/s, 359° | - | - |
| 1778022868 | 60° C | - | - | 0 mm | 7.6 m/s, 7° | - | - |
| 1778022566 | 60° C | - | - | 0 mm | 4.92 m/s, 354° | - | - |
| 1778022263 | 60° C | - | - | 0 mm | 5.81 m/s, 356° | - | - |
| 1778021960 | 60° C | - | - | 0 mm | 4.02 m/s, 350° | - | - |
| 1778021657 | 60° C | - | - | 0 mm | 7.6 m/s, 358° | - | - |
| 1778021352 | 60° C | - | - | 0 mm | 6.71 m/s, 24° | - | - |
| 1778021050 | 60° C | - | - | 0 mm | 4.92 m/s, 345° | - | - |
| 1778020746 | 60° C | - | - | 0 mm | 5.81 m/s, 22° | - | - |
| 1778020444 | 60° C | - | - | 0 mm | 6.71 m/s, 8° | - | - |
| 1778020139 | 60° C | - | - | 0 mm | 4.92 m/s, 354° | - | - |
| 1778019836 | 60° C | - | - | 0 mm | 4.92 m/s, 359° | - | - |
| 1778019533 | 60° C | - | - | 0 mm | 3.13 m/s, 4° | - | - |
| 1778019230 | 60° C | - | - | 0 mm | 1.34 m/s, 17° | - | - |
| 1778018927 | 60° C | - | - | 0 mm | 2.68 m/s, 8° | - | - |
| 1778018624 | 60° C | - | - | 0 mm | 3.58 m/s, 23° | - | - |
| 1778018321 | 60° C | - | - | 0 mm | 3.58 m/s, 20° | - | - |
| 1778018019 | 60° C | - | - | 0 mm | 3.13 m/s, 352° | - | - |
| 1778017717 | 60° C | - | - | 0 mm | 4.92 m/s, 17° | - | - |
| 1778017414 | 60° C | - | - | 0 mm | 1.79 m/s, 324° | - | - |
| 1778017111 | 60° C | - | - | 0 mm | 0.89 m/s, 7° | - | - |
| 1778016809 | 60° C | - | - | 0 mm | 3.13 m/s, 0° | - | - |
* Rain latest hour (hover to see other rain measurements)
** Current wind speed in m/s (hover to see current wind gust speed)